Location: ?????????
(55.6553°N, 38.9075°E)
Time: 12:05:53
(UTC+00:00)

SKYMED 2 - Pass Details

Date: 18 October 2019
Orbit: 621 x 623 km, 97.9° (Epoch: 20 November)

Event Time Altitude Azimuth Distance (km) Brightness Sun altitude
Rises 01:47:44 0° 148° (SSE) 2,898 7.3 -19.3°
Reaches altitude 10° 01:49:58 10° 143° (SE) 1,996 6.5 -19.0°
Maximum altitude 01:54:10 51° 68° (ENE) 787 4.4 -18.4°
Drops below altitude 10° 01:58:25 10° 353° (N) 2,010 6.2 -17.8°
Sets 02:00:39 0° 348° (NNW) 2,921 7.0 -17.5°
